Rutland, VT

9:24 PM EDT on May 25, 2018 (GMT -0400)
Rutland State

Weather History for KRUT - February, 2014

Change the Weather History Date:

Saturday, February 22, 2014

  Actual Average Record
Temperature  
Mean Temperature 39 °F -  
Max Temperature 46 °F - 64 °F (1997)
Min Temperature 32 °F - -9 °F (1963)
Degree Days  
Heating Degree Days 26    
Month to date heating degree days 974  
Since 1 July heating degree days 5381  
Cooling Degree Days 0    
Month to date cooling degree days 0  
Year to date cooling degree days 0  
Moisture  
Dew Point 17 °F    
Average Humidity 58    
Maximum Humidity 92    
Minimum Humidity 24    
Precipitation  
Precipitation 0.00 in - 1.07 in (1974)
Month to date precipitation 1.32  
Year to date precipitation 3.35  
Sea Level Pressure  
Sea Level Pressure 29.83 in    
Wind  
Wind Speed 12 mph (WSW)    
Max Wind Speed 20 mph    
Max Gust Speed 28 mph    
Visibility 10 miles    
Events      
T = Trace of Precipitation, MM = Missing Value Source: NWS Daily Summary

Daily Weather History Graph

Daily Weather History Graph

Search for Another Location

Airport or City:

Astronomy

Feb. 22, 2014 Rise Set
Actual Time 6:39 AM EST 5:31 PM EST
Civil Twilight 6:10 AM EST 6:00 PM EST
Nautical Twilight 5:37 AM EST 6:33 PM EST
Astronomical Twilight 5:04 AM EST 7:07 PM EST
Moon 12:36 AM EST (2/22) 10:35 AM EST (2/22)
Length of Visible Light 11h 49m
Length of Day
10h 51m
Waning Gibbous, 50% of the Moon is Illuminated
Feb 22
Waning Gibbous
Feb 22
Last Quarter
Mar 1
New
Mar 8
First Quarter
Mar 16
Full

Hourly Weather History & Observations

Time (EST) Temp. Windchill Dew Point Humidity Pressure Visibility Wind Dir Wind Speed Gust Speed Precip Events Conditions
12:15 AM 33.8 °F - 30.2 °F 87% 29.78 in 10.0 mi Calm Calm - N/A   Mostly Cloudy
12:35 AM 35.6 °F 28.6 °F 30.2 °F 81% 29.78 in 10.0 mi West 9.2 mph - N/A   Scattered Clouds
12:55 AM 37.4 °F 30.8 °F 30.2 °F 75% 29.80 in 10.0 mi WSW 9.2 mph 18.4 mph N/A   Clear
1:15 AM 37.4 °F 34.9 °F 28.4 °F 70% 29.80 in 10.0 mi SW 3.5 mph - N/A   Clear
1:35 AM 37.4 °F 31.4 °F 28.4 °F 70% 29.81 in 10.0 mi SSW 8.1 mph - N/A   Clear
1:55 AM 37.4 °F 31.4 °F 28.4 °F 70% 29.81 in 10.0 mi SSW 8.1 mph - N/A   Clear
2:15 AM 37.4 °F 31.4 °F 26.6 °F 65% 29.80 in 10.0 mi WSW 8.1 mph - N/A   Clear
2:35 AM 37.4 °F 29.3 °F 24.8 °F 60% 29.80 in 10.0 mi SW 12.7 mph 20.7 mph N/A   Clear
2:55 AM 37.4 °F 29.8 °F 23.0 °F 56% 29.80 in 10.0 mi WSW 11.5 mph 25.3 mph N/A   Clear
3:15 AM 37.4 °F 29.3 °F 23.0 °F 56% 29.81 in 10.0 mi SW 12.7 mph 21.9 mph N/A   Clear
3:35 AM 37.4 °F 28.5 °F 21.2 °F 52% 29.81 in 10.0 mi WSW 15.0 mph 23.0 mph N/A   Clear
3:55 AM 37.4 °F 28.9 °F 21.2 °F 52% 29.82 in 10.0 mi WSW 13.8 mph 21.9 mph N/A   Clear
4:15 AM 37.4 °F 28.5 °F 21.2 °F 52% 29.83 in 10.0 mi SW 15.0 mph 20.7 mph N/A   Clear
4:35 AM 37.4 °F 28.9 °F 19.4 °F 48% 29.83 in 10.0 mi SW 13.8 mph 24.2 mph N/A   Clear
4:55 AM 37.4 °F 29.3 °F 17.6 °F 45% 29.84 in 10.0 mi WSW 12.7 mph 23.0 mph N/A   Clear
5:15 AM 37.4 °F 28.5 °F 19.4 °F 48% 29.84 in 10.0 mi SW 15.0 mph 20.7 mph N/A   Clear
5:35 AM 37.4 °F 28.2 °F 17.6 °F 45% 29.86 in 10.0 mi SW 16.1 mph 25.3 mph N/A   Clear
5:55 AM 37.4 °F 29.3 °F 17.6 °F 45% 29.86 in 10.0 mi WSW 12.7 mph 23.0 mph N/A   Clear
6:15 AM 37.4 °F 28.5 °F 17.6 °F 45% 29.87 in 10.0 mi SW 15.0 mph 20.7 mph N/A   Clear
6:35 AM 37.4 °F 29.3 °F 15.8 °F 41% 29.87 in 10.0 mi SW 12.7 mph 16.1 mph N/A   Clear
6:55 AM 37.4 °F 30.3 °F 15.8 °F 41% 29.87 in 10.0 mi SW 10.4 mph - N/A   Clear
7:15 AM 37.4 °F 30.3 °F 15.8 °F 41% 29.87 in 10.0 mi SW 10.4 mph 18.4 mph N/A   Clear
7:35 AM 37.4 °F 30.8 °F 15.8 °F 41% 29.88 in 10.0 mi SW 9.2 mph - N/A   Clear
7:55 AM 37.4 °F 29.3 °F 14.0 °F 38% 29.87 in 10.0 mi SW 12.7 mph 16.1 mph N/A   Clear
8:15 AM 37.4 °F 30.8 °F 14.0 °F 38% 29.87 in 10.0 mi SSW 9.2 mph 16.1 mph N/A   Clear
8:35 AM 39.2 °F 32.0 °F 15.8 °F 39% 29.87 in 10.0 mi SW 11.5 mph 16.1 mph N/A   Clear
8:55 AM 39.2 °F 33.0 °F 15.8 °F 39% 29.86 in 10.0 mi SSW 9.2 mph - N/A   Clear
9:15 AM 39.2 °F 31.6 °F 15.8 °F 39% 29.85 in 10.0 mi SSW 12.7 mph 16.1 mph N/A   Clear
9:35 AM 41.0 °F 33.9 °F 15.8 °F 36% 29.85 in 10.0 mi SSW 12.7 mph 17.3 mph N/A   Clear
9:55 AM 41.0 °F 33.1 °F 15.8 °F 36% 29.84 in 10.0 mi WSW 15.0 mph 19.6 mph N/A   Clear
10:15 AM 42.8 °F 35.8 °F 15.8 °F 34% 29.84 in 10.0 mi SSW 13.8 mph 23.0 mph N/A   Clear
10:35 AM 42.8 °F 37.0 °F 17.6 °F 36% 29.83 in 10.0 mi SSW 10.4 mph 21.9 mph N/A   Clear
10:55 AM 42.8 °F 36.2 °F 17.6 °F 36% 29.82 in 10.0 mi SSW 12.7 mph 18.4 mph N/A   Mostly Cloudy
11:15 AM 42.8 °F 39.3 °F 17.6 °F 36% 29.83 in 10.0 mi SW 5.8 mph - N/A   Overcast
11:35 AM 42.8 °F 35.8 °F 17.6 °F 36% 29.82 in 10.0 mi SW 13.8 mph 20.7 mph N/A   Overcast
11:55 AM 42.8 °F 35.4 °F 17.6 °F 36% 29.82 in 10.0 mi West 15.0 mph 23.0 mph N/A   Overcast
12:15 PM 42.8 °F 36.2 °F 19.4 °F 39% 29.80 in 10.0 mi SW 12.7 mph 29.9 mph N/A   Mostly Cloudy
12:35 PM 44.6 °F 36.9 °F 19.4 °F 37% 29.79 in 10.0 mi SW 18.4 mph 26.5 mph N/A   Scattered Clouds
12:55 PM 44.6 °F 37.8 °F 19.4 °F 37% 29.78 in 10.0 mi SSW 15.0 mph 21.9 mph N/A   Clear
1:15 PM 44.6 °F 37.4 °F 21.2 °F 39% 29.78 in 10.0 mi SW 16.1 mph 24.2 mph N/A   Scattered Clouds
1:35 PM 44.6 °F 37.4 °F 19.4 °F 37% 29.78 in 10.0 mi SW 16.1 mph 24.2 mph N/A   Overcast
1:55 PM 44.6 °F 39.7 °F 19.4 °F 37% 29.77 in 10.0 mi SW 9.2 mph 20.7 mph N/A   Overcast
2:15 PM 44.6 °F 37.2 °F 19.4 °F 37% 29.77 in 10.0 mi WSW 17.3 mph 27.6 mph N/A   Mostly Cloudy
2:35 PM 44.6 °F 39.2 °F 21.2 °F 39% 29.77 in 10.0 mi WSW 10.4 mph 24.2 mph N/A   Mostly Cloudy
2:55 PM 44.6 °F 38.8 °F 19.4 °F 37% 29.77 in 10.0 mi WSW 11.5 mph 20.7 mph N/A   Mostly Cloudy
3:15 PM 44.6 °F 38.8 °F 19.4 °F 37% 29.77 in 10.0 mi WSW 11.5 mph - N/A   Mostly Cloudy
3:35 PM 44.6 °F 38.1 °F 19.4 °F 37% 29.77 in 10.0 mi SW 13.8 mph 25.3 mph N/A   Mostly Cloudy
3:55 PM 44.6 °F 36.6 °F 19.4 °F 37% 29.78 in 10.0 mi WSW 19.6 mph 27.6 mph N/A   Scattered Clouds
4:15 PM 44.6 °F 37.2 °F 17.6 °F 34% 29.78 in 10.0 mi West 17.3 mph 34.5 mph N/A   Partly Cloudy
4:35 PM 44.6 °F 38.4 °F 19.4 °F 37% 29.79 in 10.0 mi WSW 12.7 mph 28.8 mph N/A   Partly Cloudy
4:55 PM 44.6 °F 38.1 °F 19.4 °F 37% 29.79 in 10.0 mi SW 13.8 mph 25.3 mph N/A   Partly Cloudy
5:15 PM 44.6 °F 39.2 °F 17.6 °F 34% 29.80 in 10.0 mi WSW 10.4 mph 25.3 mph N/A   Partly Cloudy
5:35 PM 44.6 °F 38.1 °F 17.6 °F 34% 29.81 in 10.0 mi WSW 13.8 mph 24.2 mph N/A   Partly Cloudy
5:55 PM 42.8 °F 35.1 °F 17.6 °F 36% 29.82 in 10.0 mi WSW 16.1 mph 20.7 mph N/A   Clear
6:15 PM 44.6 °F 39.2 °F 14.0 °F 29% 29.83 in 10.0 mi West 10.4 mph 32.2 mph N/A   Partly Cloudy
6:35 PM 44.6 °F 38.8 °F 12.2 °F 27% 29.84 in 10.0 mi West 11.5 mph 31.1 mph N/A   Scattered Clouds
6:55 PM 42.8 °F 35.8 °F 10.4 °F 27% 29.85 in 10.0 mi West 13.8 mph 27.6 mph N/A   Partly Cloudy
7:15 PM 42.8 °F 36.6 °F 6.8 °F 23% 29.85 in 10.0 mi WNW 11.5 mph 32.2 mph N/A   Clear
7:35 PM 42.8 °F 37.0 °F 8.6 °F 25% 29.85 in 10.0 mi West 10.4 mph 19.6 mph N/A   Mostly Cloudy
7:55 PM 42.8 °F 34.8 °F 8.6 °F 25% 29.85 in 10.0 mi West 17.3 mph 24.2 mph N/A   Overcast
8:15 PM 42.8 °F 37.0 °F 8.6 °F 25% 29.86 in 10.0 mi West 10.4 mph 16.1 mph N/A   Overcast
8:35 PM 42.8 °F 37.0 °F 8.6 °F 25% 29.86 in 10.0 mi WSW 10.4 mph - N/A   Overcast
8:55 PM 41.0 °F 36.4 °F 8.6 °F 26% 29.87 in 10.0 mi West 6.9 mph - N/A   Overcast
9:15 PM 41.0 °F 35.8 °F 8.6 °F 26% 29.87 in 10.0 mi WSW 8.1 mph - N/A   Mostly Cloudy
9:35 PM 39.2 °F 33.0 °F 8.6 °F 28% 29.88 in 10.0 mi WSW 9.2 mph - N/A   Partly Cloudy
9:55 PM 39.2 °F 32.0 °F 10.4 °F 31% 29.88 in 10.0 mi WSW 11.5 mph 19.6 mph N/A   Clear
10:15 PM 39.2 °F 31.6 °F 10.4 °F 31% 29.88 in 10.0 mi WSW 12.7 mph 25.3 mph N/A   Clear
10:35 PM 39.2 °F 31.2 °F 10.4 °F 31% 29.89 in 10.0 mi WSW 13.8 mph 19.6 mph N/A   Clear
10:55 PM 39.2 °F 31.2 °F 12.2 °F 33% 29.90 in 10.0 mi SW 13.8 mph 20.7 mph N/A   Clear
11:15 PM 39.2 °F 30.2 °F 12.2 °F 33% 29.90 in 10.0 mi WSW 17.3 mph 23.0 mph N/A   Clear
11:35 PM 39.2 °F 33.0 °F 14.0 °F 36% 29.91 in 10.0 mi West 9.2 mph 23.0 mph N/A   Mostly Cloudy
11:55 PM 39.2 °F 33.0 °F 14.0 °F 36% 29.91 in 10.0 mi West 9.2 mph 20.7 mph N/A   Overcast